Probability
3 4 3 2 0 0 0 0 0 0 0 0 0 0 0 0 0 0 0 0 0 0 0 0 0 0 0 0 0 0 0 0 0 0 0 0 0 0 0 0 0 1 2
3 4 4 2 1 0 0 0 0 0 0 0 0 0 0 0 0 0 0 0 0 0 0 0 0 0 0 0 0 0 0 0 0 0 0 0 0 0 0 0 0 1 2
3 3 3 2 2 1 0 0 0 0 0 0 0 0 0 0 0 0 0 0 0 0 0 0 0 0 0 0 0 0 0 0 0 0 0 0 0 0 0 0 0 0 1
3 3 3 2 2 2 1 0 0 0 0 0 0 0 0 0 0 0 0 0 0 0 0 0 0 0 0 0 0 0 0 1 0 0 0 0 0 0 0 0 0 0 0
3 3 3 2 2 3 3 1 0 0 0 0 0 0 0 0 0 0 0 0 0 0 0 0 0 0 0 0 0 0 0 0 0 0 0 0 0 0 0 0 0 0 1
3 3 3 3 2 2 3 2 1 0 0 0 0 0 0 0 0 0 0 0 0 1 1 1 0 0 0 0 0 0 0 0 0 0 0 0 0 0 0 0 0 0 1
3 3 3 3 2 2 2 2 1 0 0 0 0 0 0 0 0 0 0 0 0 1 2 2 1 0 0 0 0 0 0 0 0 0 0 0 0 0 0 0 0 0 1
3 3 3 3 2 2 1 1 0 0 0 0 0 0 0 0 0 0 0 0 0 1 3 3 1 0 0 0 0 0 0 0 0 0 0 0 0 0 0 0 0 0 0
3 3 3 3 2 1 1 0 0 0 0 0 0 0 0 0 0 0 0 0 0 1 3 3 1 0 0 0 0 0 0 0 0 0 0 0 0 0 0 0 0 0 0
3 3 3 3 2 1 0 0 0 0 0 0 0 0 0 0 0 0 0 0 0 0 2 3 2 0 0 0 0 0 0 0 0 0 0 0 0 0 1 1 1 1 0
3 3 3 2 1 1 0 0 0 0 0 0 0 0 0 0 0 0 0 0 0 0 2 3 1 0 0 0 0 0 0 0 0 0 0 0 0 1 2 3 3 2 1
1 2 2 1 0 0 0 0 0 0 0 0 0 0 0 0 0 0 0 0 0 1 2 3 1 0 0 0 0 0 0 0 0 0 0 0 0 2 4 5 4 3 3
0 1 2 1 0 0 0 0 0 0 0 0 0 0 0 0 0 0 0 1 1 1 3 2 1 0 0 0 0 0 0 0 0 0 0 0 1 2 4 4 3 3 3
0 1 2 1 0 0 0 0 0 0 0 0 0 0 0 0 0 0 0 1 2 3 3 2 1 0 0 0 0 0 0 0 0 0 0 0 1 2 3 3 2 2 1
0 1 1 1 0 0 0 0 0 0 0 0 0 0 0 0 0 0 0 1 2 3 3 2 1 0 0 0 0 0 0 0 0 0 0 0 1 2 3 3 2 1 1
0 0 1 1 1 0 0 0 0 0 0 0 0 0 0 0 0 0 0 0 1 2 3 2 1 0 0 0 0 0 0 0 0 0 0 0 0 1 3 3 3 2 1
0 0 0 1 1 0 0 0 0 0 0 0 0 0 0 0 0 0 0 0 0 1 3 2 1 0 0 0 0 0 0 0 0 0 0 0 0 1 2 3 3 4 4
0 0 1 1 1 1 0 0 0 0 0 0 0 0 0 0 0 0 0 0 0 1 2 2 1 0 0 0 0 0 0 0 0 0 0 0 0 1 2 2 3 4 5
0 0 1 1 1 1 0 0 0 0 0 0 0 0 0 0 0 0 0 0 0 0 1 1 0 0 0 0 0 0 0 0 0 0 0 0 0 1 2 2 2 3 3
0 0 1 2 1 0 0 0 0 0 0 0 0 0 0 0 0 0 0 0 0 0 0 0 0 0 0 0 0 0 0 0 0 0 0 0 0 1 2 2 1 1 1
0 0 1 2 1 0 0 0 0 0 0 0 0 0 0 0 0 0 0 0 0 0 0 0 0 0 0 0 0 0 0 0 0 0 0 0 0 0 1 2 3 2 1
0 0 2 2 1 0 0 0 0 0 0 0 0 0 0 0 0 0 0 0 0 0 0 0 0 0 0 0 0 0 0 0 0 0 0 0 0 0 1 2 3 2 1
0 0 1 1 1 0 0 0 0 0 0 0 0 0 0 0 0 0 0 0 0 0 0 0 0 0 0 0 0 0 0 0 0 0 0 0 0 0 0 1 2 2 1
0 0 0 0 0 0 0 0 0 0 0 0 0 0 0 0 0 0 0 0 0 0 0 0 0 0 0 0 0 0 0 0 0 0 0 0 0 0 0 0 1 1 1
0 0 0 0 0 0 0 0 0 0 0 0 0 0 0 0 0 0 0 0 0 0 0 0 0 0 0 0 0 0 0 0 0 0 0 0 0 0 0 0 0 0 0
0 0 0 0 0 0 0 0 0 0 0 0 0 0 0 0 0 0 0 0 0 0 0 0 0 0 0 0 0 0 0 0 0 0 0 0 0 0 0 0 0 0 0
Wind_Speed
3 4 3 5 6 6 7 7 8 8 8 9 9 9 9 10 10 10 10 10 10 11 11 11 11 11 11 11 11 11 11 11 11 10 11 12 12 12 13 12 11 8 12
4 4 4 5 6 6 7 7 7 8 8 8 8 8 8 9 9 10 10 9 9 10 10 10 10 10 11 11 11 10 10 10 9 9 9 9 11 12 12 12 11 8 12
5 5 5 6 6 6 7 7 7 7 7 7 7 8 8 8 8 9 9 9 9 9 9 9 9 10 10 10 9 9 8 8 8 8 7 5 7 11 11 11 11 11 11
5 5 5 6 6 6 6 6 7 7 7 7 7 7 7 7 8 8 8 9 9 9 9 9 9 9 9 9 8 8 7 7 7 7 4 5 5 9 10 10 10 10 10
5 5 6 7 7 6 6 6 6 6 7 7 7 7 7 7 7 8 8 8 8 8 8 8 8 9 8 8 8 7 7 7 6 5 4 5 4 8 9 9 9 9 9
5 5 7 6 7 6 6 6 6 6 6 6 6 6 6 6 6 7 7 7 7 7 7 8 8 8 8 8 7 7 7 6 5 3 4 4 4 7 8 8 8 8 8
5 5 6 6 6 6 5 5 5 5 6 5 5 6 6 6 6 6 6 6 6 6 6 7 7 7 7 7 7 7 7 6 3 2 3 4 4 7 7 7 7 7 7
5 5 5 5 5 5 5 5 5 5 5 5 4 5 5 5 5 5 5 5 5 5 5 6 6 6 6 6 6 6 7 6 3 3 3 3 5 6 6 6 6 6 6
4 4 4 4 4 4 4 5 5 4 4 4 4 4 5 5 5 5 5 5 5 4 5 5 5 5 5 5 5 6 6 6 3 2 3 2 4 4 5 5 5 6 6
3 4 4 3 3 3 3 5 5 5 4 4 4 4 4 4 4 4 4 4 4 4 4 4 4 4 4 4 5 5 6 4 2 2 2 2 3 3 4 4 4 5 5
2 3 3 3 2 2 2 3 4 4 4 3 3 2 1 1 2 2 3 4 3 3 3 3 3 3 3 3 4 5 4 2 2 1 1 3 2 2 2 3 3 4 4
2 2 3 2 2 2 2 2 1 2 2 1 1 1 0 1 2 2 3 3 3 2 2 2 2 2 2 1 2 3 1 2 2 1 1 3 2 2 2 2 2 3 3
2 2 2 2 2 1 1 1 1 1 1 1 1 0 1 1 1 1 1 1 1 1 1 1 1 1 1 1 1 1 1 1 1 1 2 2 2 3 2 2 2 3 3
2 2 2 2 2 1 1 0 1 1 1 1 1 0 1 1 0 0 0 0 1 0 1 1 0 0 1 1 1 1 1 1 1 1 1 3 3 3 3 3 3 3 4
2 2 2 2 1 1 1 1 0 1 1 1 1 0 1 0 0 0 0 0 0 1 1 1 1 1 1 1 1 1 1 1 1 1 1 2 3 3 4 4 4 4 5
3 2 2 2 2 1 1 1 1 1 1 1 1 0 0 0 0 0 0 0 0 0 0 1 1 1 1 1 1 1 1 2 1 1 1 1 2 4 5 5 5 5 6
2 3 3 2 2 1 1 1 1 1 1 1 1 1 0 0 0 1 1 0 0 1 0 0 1 1 2 2 2 2 2 2 2 2 1 1 1 2 4 5 6 6 6
2 3 3 2 2 2 1 1 1 1 1 1 1 1 1 1 1 1 1 1 0 1 1 1 1 1 2 2 2 2 2 2 2 2 2 1 1 1 2 4 6 6 7
3 3 3 3 3 2 1 1 1 0 1 1 1 0 1 1 1 1 1 1 1 1 1 1 1 1 1 2 2 2 2 2 3 3 3 2 2 1 1 3 5 5 6
3 3 2 3 2 2 1 0 0 0 0 0 1 1 1 1 1 1 1 1 1 1 1 1 1 1 1 1 3 3 3 3 2 3 3 2 2 2 1 2 2 4 6
3 3 3 3 2 2 1 1 1 1 1 1 0 1 1 1 1 1 1 1 1 1 2 1 1 1 1 1 2 3 4 3 3 3 2 2 2 2 2 2 2 2 3
3 3 3 3 3 2 2 2 1 1 1 1 1 0 1 1 1 1 1 1 1 1 2 2 1 1 2 1 1 2 3 3 2 3 2 2 2 1 2 3 2 2 2
3 3 3 3 3 3 2 1 1 0 0 1 1 1 1 1 0 1 1 1 1 1 1 2 2 2 2 2 1 1 2 3 4 2 3 2 2 2 2 2 3 3 3
3 3 3 3 3 3 3 3 3 2 2 2 1 1 1 1 0 1 1 1 1 1 1 2 1 2 2 2 1 2 2 2 2 4 3 2 2 3 3 3 3 3 3
3 3 3 3 3 3 3 4 3 2 2 1 1 1 1 1 0 0 0 1 1 1 1 1 2 2 2 2 2 2 2 3 3 3 5 4 4 3 3 3 3 3 3
2 3 3 3 4 4 4 4 4 4 3 2 2 1 1 0 1 1 1 1 1 1 1 2 2 2 2 2 2 2 2 2 2 3 5 5 5 4 4 3 3 3 2
Wind_Direction
83 90 82 86 85 87 89 87 80 75 75 74 74 73 72 70 69 65 65 63 61 60 60 58 58 57 56 57 58 56 55 53 51 53 55 60 62 61 59 53 49 51 54
98 102 93 87 90 94 93 91 85 80 77 76 74 72 74 73 70 68 65 62 61 60 59 57 58 57 59 59 59 57 55 51 49 49 49 56 60 60 58 52 50 51 51
96 102 99 84 87 95 95 91 87 84 81 78 75 73 73 75 73 69 64 61 61 60 60 60 58 58 57 56 56 54 51 47 46 44 44 51 59 59 58 54 51 51 49
96 95 93 81 82 92 98 95 90 84 81 79 76 73 72 73 73 70 65 62 61 60 61 62 60 57 54 53 52 49 46 45 42 40 49 53 56 59 57 55 52 50 48
96 95 94 86 84 87 93 96 93 87 82 78 76 73 71 69 70 69 66 63 60 60 61 60 59 56 54 53 51 46 41 39 31 46 50 51 53 57 56 54 51 48 45
97 94 98 89 87 86 90 95 95 92 86 81 78 73 69 67 65 65 65 63 59 60 61 60 58 56 55 52 48 41 35 31 28 43 48 50 51 53 53 52 48 47 44
98 95 104 93 89 85 87 92 95 93 87 80 78 76 68 64 61 60 59 57 58 61 64 62 59 56 53 49 44 35 23 20 29 33 52 53 48 53 51 50 46 45 44
103 105 109 97 96 88 86 88 87 87 84 81 78 72 67 63 58 53 51 50 55 62 64 64 61 58 50 43 36 25 14 14 20 26 50 53 53 55 53 51 46 42 41
106 109 113 119 108 94 90 93 86 77 75 79 79 72 63 57 56 51 46 47 51 54 56 58 57 54 46 37 29 18 6 6 4 20 41 39 56 55 50 44 42 38 35
107 113 117 122 118 110 98 95 95 88 77 75 73 73 66 57 54 49 43 36 40 42 47 49 50 45 34 24 15 3 353 352 2 26 28 31 53 57 47 36 33 27 26
110 111 113 114 116 118 119 108 106 105 97 90 81 82 78 82 72 53 50 37 29 27 39 43 39 36 22 9 0 353 349 349 10 28 19 21 35 39 37 29 24 17 11
142 130 118 123 120 122 129 128 138 130 122 104 92 75 32 58 60 54 48 36 20 9 14 19 8 5 1 338 345 343 339 351 358 16 24 20 360 353 358 13 7 359 352
159 129 122 126 125 113 119 151 156 139 131 118 105 34 52 69 74 59 57 44 352 320 313 343 334 321 334 334 319 328 348 353 354 4 17 9 338 324 318 324 326 325 327
167 158 132 121 132 142 134 175 167 140 138 128 133 89 65 75 85 106 67 334 320 317 300 278 249 305 320 324 322 335 341 342 345 350 6 356 322 306 303 305 303 306 309
178 165 143 138 137 131 152 223 184 156 146 136 134 92 76 102 190 177 85 306 309 345 311 292 295 285 283 287 297 318 315 312 308 304 328 356 337 305 290 296 300 298 300
184 159 148 160 156 151 184 226 218 182 168 152 155 154 67 236 217 224 207 251 290 290 302 292 283 280 276 271 261 262 267 272 273 275 253 317 333 321 303 287 288 290 294
177 162 167 182 171 183 206 227 244 196 188 182 177 183 229 271 253 275 244 222 263 256 231 263 298 295 282 278 264 262 258 256 262 262 256 244 264 292 306 292 281 287 293
169 173 171 174 177 197 212 227 232 203 205 198 185 201 230 256 253 267 245 227 249 273 215 201 222 303 299 286 283 284 276 261 255 250 251 252 258 271 278 294 297 292 295
174 173 173 168 179 194 219 215 197 196 223 210 189 226 258 262 255 254 252 233 203 277 245 226 241 231 288 310 304 293 282 270 248 240 240 241 249 263 267 287 287 289 295
160 159 173 171 174 177 198 182 183 194 255 228 208 229 251 266 276 260 249 243 191 229 241 208 236 265 257 287 303 299 284 263 248 236 237 236 234 244 262 283 286 280 288
158 164 176 175 174 162 173 177 194 240 263 279 255 203 227 264 273 245 247 237 206 220 219 186 207 252 266 276 313 307 290 256 240 251 230 215 224 233 243 263 273 282 283
172 179 179 180 181 183 198 198 188 194 224 228 277 307 239 225 249 256 249 247 220 216 214 184 203 249 263 269 300 310 303 299 276 265 239 227 237 243 258 259 256 272 278
185 186 188 192 194 195 194 179 163 165 249 246 247 261 272 231 237 278 261 246 240 226 220 220 206 216 251 274 259 231 277 283 312 280 252 243 238 267 268 266 255 260 269
194 185 193 200 199 196 189 186 189 198 224 232 225 230 267 256 231 260 256 242 240 237 228 244 249 239 230 248 269 253 253 264 283 301 295 271 268 264 257 266 262 252 251
180 182 193 201 205 199 195 198 206 214 225 215 195 212 236 256 248 265 251 240 237 233 230 236 248 245 240 241 242 253 262 271 254 261 286 294 294 275 263 263 262 254 247
169 174 189 206 214 205 197 198 201 205 207 206 219 221 221 229 278 298 242 226 236 231 234 240 237 237 238 242 246 241 239 243 252 252 268 286 289 284 281 271 264 259 253